Tracking 35237 objects as of 5-Sep-2026
HD Live streaming from Space Station
objects crossing your sky now

COSMOS 875


10-day predictions
COSMOS 875 is classified as:


NORAD ID: 9592
Int'l Code: 1976-118E
Launch date: December 7, 1976
Source: Commonwealth of Independent States (former USSR) (CIS)
Launch site: PLESETSK MISSILE AND SPACE COMPLEX (PKMTR)
Your satellite tracking list
Your tracking list is empty




NASA's NSSDC Master Catalog

Two Line Element Set (TLE):
1  9592U 76118E   26247.94333574 -.00000008  00000-0  52974-4 0  9997
2  9592  74.0283  65.6026 0017923 331.5623 196.2935 12.53520692276095
Source of the keplerian elements: AFSPC